{"data":{"norad_id":64874,"epoch":"2026-09-21T21:36:51.997248Z","epoch_age_seconds":50214,"freshness":"FRESH","line1":"1 64874U 25154F   26264.90060182  .00001760  00000+0  82618-4 0  9994","line2":"2 64874  97.3868 328.0741 0001671 340.5962  19.5209 15.20928758 64543","mean_motion":15.20928758,"eccentricity":0.0001671,"inclination_deg":97.3868,"raan_deg":328.0741,"arg_perigee_deg":340.5962,"mean_anomaly_deg":19.5209,"bstar":8.2618e-5,"rev_number":6454,"period_min":94.678990874864,"perigee_km":501.88800822573,"apogee_km":504.18769686145,"semimajor_km":6881.1748525436,"source":"CELESTRAK","updated_at":"2026-09-22T09:00:30.012429Z"}}